Weather History for Casement, Ireland

Change the Weather History Date:

Wednesday, December 11, 2013

  Actual Average (EIDW) Record (EIDW)
Temperature  
Mean Temperature 52 °F -  
Max Temperature 55 °F 45 °F 57 °F (1998)
Min Temperature 49 °F 35 °F 26 °F (2008)
Degree Days  
Heating Degree Days 13    
Growing Degree Days 2 (Base 50)    
Moisture  
Dew Point 43 °F    
Average Humidity 73    
Maximum Humidity 94    
Minimum Humidity 48    
Precipitation  
Precipitation 0.00 in - - ()
Sea Level Pressure  
Sea Level Pressure 30.12 in    
Wind  
Wind Speed 12 mph ()    
Max Wind Speed 25 mph    
Max Gust Speed 39 mph    
Visibility 6.6 miles    
Events      
Averages and records for this station are not official NWS values.
T = Trace of Precipitation, MM = Missing Value Source: Averaged Metar Reports

Daily Weather History Graph

Daily Weather History Graph

Search for Another Location

Airport:

Trip Planner

Search our weather history database for the weather conditions in past years. The results will help you decide how hot, cold, wet, or windy it might be!

Date:

Astronomy

Dec. 11, 2013 Rise Set
Actual Time 8:30 AM GMT 4:07 PM GMT
Civil Twilight 7:48 AM GMT 4:49 PM GMT
Nautical Twilight 7:03 AM GMT 5:34 PM GMT
Astronomical Twilight 6:20 AM GMT 6:17 PM GMT
Moon 1:11 PM GMT (12/11) 1:55 AM GMT (12/11)
Length of Visible Light 9h 01m
Length of Day
7h 36m
Waxing Gibbous, 69% of the Moon is Illuminated
Dec 11
Waxing Gibbous
Dec 17
Full
Dec 25
Last Quarter
Jan 1
New
Jan 8
First Quarter

Hourly Weather History & Observations

Time (GMT) Temp. Dew Point Humidity Pressure Visibility Wind Dir Wind Speed Gust Speed Precip Events Conditions
12:00 AM 53 °F 50 °F 85% 30.20 in 10 mi South 24.6 mph - -   Scattered Clouds
12:00 AM 53.6 °F 50.0 °F 88% 30.18 in 6.2 mi South 24.2 mph 35.7 mph N/A   Mostly Cloudy
1:00 AM 51.8 °F 50.0 °F 94% 30.18 in 6.2 mi South 23.0 mph - N/A   Mostly Cloudy
2:00 AM 51.8 °F 50.0 °F 94% 30.21 in 6.2 mi South 19.6 mph - N/A   Overcast
3:00 AM 51.8 °F 50.0 °F 94% 30.21 in 6.2 mi South 11.5 mph - N/A   Mostly Cloudy
4:00 AM 51.8 °F 44.6 °F 76% 30.18 in 6.2 mi South 12.7 mph - N/A   Partly Cloudy
5:00 AM 50.0 °F 44.6 °F 82% 30.18 in 6.2 mi South 10.4 mph - N/A   Partly Cloudy
6:00 AM 50 °F 44 °F 74% 30.20 in 22 mi ESE 6.7 mph - -   Scattered Clouds
6:00 AM 50.0 °F 44.6 °F 82% 30.18 in 6.2 mi ESE 6.9 mph - N/A   Mostly Cloudy
7:00 AM 50.0 °F 44.6 °F 82% 30.18 in 6.2 mi SSE 6.9 mph - N/A   Mostly Cloudy
8:00 AM 50.0 °F 46.4 °F 87% 30.15 in 6.2 mi SSE 4.6 mph - N/A   Mostly Cloudy
8:30 AM 50.0 °F 44.6 °F 82% 30.15 in 6.2 mi SSE 8.1 mph - N/A   Mostly Cloudy
9:00 AM 50.0 °F 42.8 °F 76% 30.15 in 6.2 mi SSE 15.0 mph - N/A   Mostly Cloudy
9:30 AM 50.0 °F 41.0 °F 71% 30.15 in 6.2 mi SSE 6.9 mph - N/A   Mostly Cloudy
10:00 AM 50.0 °F 41.0 °F 71% 30.15 in 6.2 mi ESE 8.1 mph - N/A   Mostly Cloudy
10:30 AM 50.0 °F 42.8 °F 76% 30.15 in 6.2 mi SSE 11.5 mph - N/A   Mostly Cloudy
11:00 AM 50.0 °F 41.0 °F 71% 30.15 in 6.2 mi East 10.4 mph - N/A   Mostly Cloudy
11:30 AM 50.0 °F 41.0 °F 71% 30.15 in 6.2 mi East 8.1 mph - N/A   Mostly Cloudy
12:00 PM 50 °F 42 °F 67% 30.16 in 25 mi SE 4.5 mph - -   Scattered Clouds
12:00 PM 50.0 °F 42.8 °F 76% 30.15 in 6.2 mi East 4.6 mph - N/A   Mostly Cloudy
12:30 PM 50.0 °F 41.0 °F 71% 30.12 in 6.2 mi East 4.6 mph - N/A   Mostly Cloudy
1:00 PM 50.0 °F 42.8 °F 76% 30.12 in 6.2 mi East 3.5 mph - N/A   Mostly Cloudy
1:30 PM 50.0 °F 41.0 °F 71% 30.09 in 6.2 mi East 4.6 mph - N/A   Mostly Cloudy
2:00 PM 50.0 °F 41.0 °F 71% 30.09 in 6.2 mi SE 4.6 mph - N/A   Mostly Cloudy
2:30 PM 50.0 °F 41.0 °F 71% 30.09 in 6.2 mi South 6.9 mph - N/A   Mostly Cloudy
3:00 PM 50.0 °F 41.0 °F 71% 30.09 in 6.2 mi SSE 5.8 mph - N/A   Mostly Cloudy
3:30 PM 50.0 °F 41.0 °F 71% 30.06 in 6.2 mi ESE 3.5 mph - N/A   Mostly Cloudy
4:00 PM 50.0 °F 39.2 °F 66% 30.06 in 6.2 mi South 9.2 mph - N/A   Mostly Cloudy
4:30 PM 50.0 °F 39.2 °F 66% 30.06 in 6.2 mi South 13.8 mph - N/A   Mostly Cloudy
5:00 PM 51.8 °F 39.2 °F 62% 30.06 in 6.2 mi SSW 5.8 mph - N/A   Mostly Cloudy
6:00 PM 53 °F 39 °F 48% 30.05 in 16 mi South 13.4 mph - -   Overcast
6:00 PM 53.6 °F 39.2 °F 58% 30.04 in 6.2 mi South 13.8 mph - N/A   Overcast
7:00 PM 53.6 °F 41.0 °F 62% 30.04 in 6.2 mi South 19.6 mph - N/A   Overcast
8:00 PM 55.4 °F 37.4 °F 51% 30.01 in 6.2 mi South 24.2 mph 38.0 mph N/A   Mostly Cloudy
9:00 PM 55.4 °F 37.4 °F 51% 30.01 in 6.2 mi South 21.9 mph 39.1 mph N/A   Overcast
10:00 PM 55.4 °F 42.8 °F 63% 30.01 in 6.2 mi South 25.3 mph - N/A   Unknown
11:00 PM 53.6 °F 44.6 °F 72% 29.98 in 6.2 mi South 24.2 mph - N/A   Mostly Cloudy